Chicago, IL

8:34 PM CDT on June 19, 2019 (GMT -0500)
Chicago-O'Hare International

Weather History for KORD - May, 2019

Change the Weather History Date:

Wednesday, May 22, 2019

  Actual Average Record
Temperature  
Mean Temperature 66 °F 61 °F  
Max Temperature 82 °F 72 °F 94 °F (1925)
Min Temperature 49 °F 50 °F 36 °F (2006)
Degree Days  
Heating Degree Days 0 6  
Month to date heating degree days 228 182  
Since 1 July heating degree days 6417 6249  
Cooling Degree Days 0 2  
Month to date cooling degree days 5 24  
Year to date cooling degree days 9 34  
Growing Degree Days 16 (Base 50)    
Moisture  
Dew Point 53 °F    
Average Humidity 77    
Maximum Humidity 96    
Minimum Humidity 39    
Precipitation  
Precipitation 0.59 in 0.12 in 1.62 in (1983)
Month to date precipitation 5.07 2.61  
Year to date precipitation 17.95 12.01  
Snow  
Snow 0.00 in 0.00 in T in (2011)
Month to date snowfall T 0.0  
Since 1 July snowfall 49.5 36.3  
Snow Depth 0.00 in    
Sea Level Pressure  
Sea Level Pressure 29.86 in    
Wind  
Wind Speed 10 mph ()    
Max Wind Speed 30 mph    
Max Gust Speed 41 mph    
Visibility 8.0 miles    
Events Rain , Thunderstorm    
T = Trace of Precipitation, MM = Missing Value Source: Averaged Metar Reports

Daily Weather History Graph

Daily Weather History Graph

Search for Another Location

Airport or City:

Astronomy

May. 22, 2019 Rise Set
Actual Time 5:25 AM CDT 8:11 PM CDT
Civil Twilight 4:52 AM CDT 8:44 PM CDT
Nautical Twilight 4:11 AM CDT 9:25 PM CDT
Astronomical Twilight 3:24 AM CDT 10:13 PM CDT
Moon 11:56 PM CDT (5/22) 8:32 AM CDT (5/22)
Length of Visible Light 15h 52m
Length of Day
14h 46m
Waning Gibbous, 85% of the Moon is Illuminated
May 22
Waning Gibbous
May 26
Last Quarter
Jun 3
New
Jun 10
First Quarter
Jun 17
Full

Hourly Weather History & Observations

Time (CDT) Temp. Heat Index Dew Point Humidity Pressure Visibility Wind Dir Wind Speed Gust Speed Precip Events Conditions
12:20 AM 54.0 °F - 42.1 °F 64% 29.89 in 10.0 mi South 15.0 mph 32.2 mph 0.00 in Rain , Thunderstorm Light Thunderstorms and Rain
12:35 AM 52.0 °F - 45.0 °F 77% 29.92 in 2.5 mi West 6.9 mph 19.6 mph 0.06 in Rain , Thunderstorm Heavy Thunderstorms and Rain
12:39 AM 51.1 °F - 45.0 °F 80% 29.90 in 1.2 mi Calm Calm - 0.11 in Rain , Thunderstorm Heavy Thunderstorms and Rain
12:49 AM 50.0 °F - 46.4 °F 87% 29.93 in 2.0 mi Variable 4.6 mph - 0.25 in Rain , Thunderstorm Thunderstorms and Rain
12:58 AM 50.0 °F - 48.0 °F 93% 29.94 in 4.0 mi SW 4.6 mph - 0.02 in Rain , Thunderstorm Thunderstorms and Rain
1:04 AM 50.0 °F - 48.0 °F 93% 29.94 in 1.8 mi Calm Calm - 0.06 in Rain Heavy Rain
1:22 AM 50.0 °F - 48.0 °F 93% 29.93 in 3.0 mi SSW 3.5 mph - 0.22 in Rain Rain
1:51 AM 50.0 °F - 48.0 °F 93% 29.91 in 7.0 mi NE 3.5 mph - 0.30 in Rain Light Rain
2:14 AM 50.0 °F - 48.0 °F 93% 29.91 in 4.0 mi East 5.8 mph - 0.05 in Rain Rain
2:27 AM 50.0 °F - 48.9 °F 96% 29.90 in 2.0 mi East 6.9 mph - 0.15 in Rain Heavy Rain
2:43 AM 50.0 °F - 48.9 °F 96% 29.88 in 4.0 mi East 10.4 mph - 0.21 in Rain Light Rain
2:51 AM 50.0 °F - 48.9 °F 96% 29.86 in 4.0 mi East 15.0 mph - 0.22 in Rain Light Rain
3:07 AM 50.0 °F - 48.9 °F 96% 29.83 in 6.0 mi East 16.1 mph - 0.01 in Rain Light Rain
3:51 AM 51.1 °F - 48.9 °F 92% 29.81 in 10.0 mi ESE 21.9 mph 32.2 mph 0.02 in Rain Light Rain
4:15 AM 52.0 °F - 50.0 °F 93% 29.84 in 10.0 mi South 10.4 mph 24.2 mph 0.01 in   Overcast
4:51 AM 52.0 °F - 50.0 °F 93% 29.86 in 10.0 mi SE 11.5 mph - 0.01 in   Overcast
5:16 AM 52.0 °F - 50.0 °F 93% 29.82 in 10.0 mi ESE 13.8 mph - N/A   Mostly Cloudy
5:51 AM 52.0 °F - 50.0 °F 93% 29.83 in 10.0 mi ESE 5.8 mph - N/A   Overcast
6:01 AM 53.1 °F - 50.0 °F 89% 29.83 in 10.0 mi SE 6.9 mph - N/A   Overcast
6:51 AM 53.1 °F - 51.1 °F 93% 29.85 in 10.0 mi SSE 8.1 mph - N/A   Overcast
7:33 AM 54.0 °F - 52.0 °F 93% 29.86 in 10.0 mi SSE 6.9 mph - N/A   Overcast
7:51 AM 55.0 °F - 53.1 °F 93% 29.86 in 10.0 mi South 5.8 mph - N/A   Overcast
8:51 AM 59.0 °F - 55.9 °F 90% 29.84 in 10.0 mi SSE 8.1 mph - N/A   Overcast
9:06 AM 60.1 °F - 55.9 °F 86% 29.83 in 10.0 mi SSE 11.5 mph - N/A   Overcast
9:44 AM 63.0 °F - 57.0 °F 81% 29.84 in 10.0 mi South 16.1 mph 21.9 mph N/A   Mostly Cloudy
9:51 AM 64.0 °F - 57.0 °F 78% 29.84 in 10.0 mi South 16.1 mph 23.0 mph N/A   Mostly Cloudy
10:51 AM 69.1 °F - 57.9 °F 68% 29.84 in 10.0 mi South 18.4 mph 26.5 mph N/A   Mostly Cloudy
11:51 AM 72.0 °F - 59.0 °F 64% 29.84 in 10.0 mi South 16.1 mph 26.5 mph N/A   Mostly Cloudy
12:51 PM 73.9 °F - 57.9 °F 57% 29.84 in 10.0 mi South 18.4 mph 26.5 mph N/A   Scattered Clouds
1:51 PM 78.1 °F - 55.9 °F 46% 29.84 in 10.0 mi South 15.0 mph 27.6 mph N/A   Scattered Clouds
2:51 PM 81.0 °F 80.7 °F 55.0 °F 41% 29.82 in 10.0 mi South 15.0 mph 36.8 mph N/A   Scattered Clouds
3:51 PM 81.0 °F 80.5 °F 54.0 °F 39% 29.82 in 10.0 mi SSW 24.2 mph 33.4 mph N/A   Mostly Cloudy
4:51 PM 82.0 °F 81.4 °F 55.0 °F 39% 29.82 in 10.0 mi SSW 17.3 mph 32.2 mph N/A   Mostly Cloudy
5:51 PM 81.0 °F 80.5 °F 54.0 °F 39% 29.82 in 10.0 mi South 24.2 mph 35.7 mph N/A   Mostly Cloudy
6:51 PM 80.1 °F 80.2 °F 55.9 °F 43% 29.82 in 10.0 mi SSW 18.4 mph 35.7 mph N/A   Mostly Cloudy
7:51 PM 78.1 °F - 60.1 °F 54% 29.83 in 10.0 mi South 15.0 mph 25.3 mph N/A   Mostly Cloudy
8:51 PM 75.9 °F - 61.0 °F 60% 29.82 in 10.0 mi South 15.0 mph 23.0 mph N/A   Mostly Cloudy
9:51 PM 75.0 °F - 62.1 °F 64% 29.83 in 10.0 mi South 17.3 mph 27.6 mph N/A   Mostly Cloudy
10:51 PM 73.0 °F - 63.0 °F 71% 29.85 in 10.0 mi South 23.0 mph 32.2 mph N/A   Overcast
11:51 PM 70.0 °F - 64.9 °F 84% 29.88 in 7.0 mi SSW 12.7 mph 20.7 mph 0.04 in Rain Light Rain